Regional Weather Roundup
Issued by NWS

Home | Current Version | Previous Version | Text Only | Print | Product List | Glossary On
Versions: 1 2 3 4 5 6 7 8 9 10 11 12 13 14 15 16 17 18 19 20 21 22 23 24 25 26 27 28 29 30 31 32 33 34 35 36 37 38 39 40 41 42 43 44 45 46 47 48 49 50
000
ASUS43 KLMK 131210
RWRKY
KENTUCKY REGIONAL WEATHER ROUNDUP
NATIONAL WEATHER SERVICE LOUISVILLE KY
700 AM EST WED DEC 13 2017

NOTE "FAIR" INDICATES FEW OR NO CLOUDS BELOW 12,000 FEET
WITH NO SIGNIFICANT WEATHER AND/OR OBSTRUCTIONS TO VISIBILITY.

KYZ001>023-026-027-061>063-070>075-131300-
WESTERN AND SOUTH CENTRAL KENTUCKY

CITY           SKY/WX    TMP DP  RH WIND       PRES   REMARKS
PADUCAH        CLOUDY    28  10  46 S6        29.96F WCI  22
HENDERSON      CLEAR     24  16  71 S9        29.96F WCI  14
OWENSBORO      CLOUDY    23  15  71 S7        29.97F WCI  15
HOPKINSVILLE   CLOUDY    25  11  55 S6        30.00S WCI  18
BOWLING GREEN  CLOUDY    23  11  60 SW5       30.01S WCI  17
GLASGOW        CLOUDY    20  11  67 CALM      30.00S
$$

KYZ024-025-028>034-038-045-046-053-131300-
NORTH CENTRAL KENTUCKY

CITY           SKY/WX    TMP DP  RH WIND       PRES   REMARKS
LOUISVILLE/SDF CLOUDY    21  11  65 SE6       29.96F WCI  13
LOUISVILLE/LOU CLOUDY    20  11  68 S7        29.97F WCI  11
FORT KNOX      CLOUDY    19   9  66 S3        29.94F
$$

KYZ035>037-039>044-047>052-055>060-089>105-131300-
NORTHEAST KENTUCKY

CITY           SKY/WX    TMP DP  RH WIND       PRES   REMARKS
LEXINGTON      CLOUDY    18   8  65 S6        29.97S WCI  10
COVINGTON      CLOUDY    20  12  71 SW7       29.92F WCI  11
FRANKFORT      CLOUDY    18   7  62 S3        29.95F
$$

KYZ054-064>069-076>088-106>120-131300-
SOUTHEAST KENTUCKY

CITY           SKY/WX    TMP DP  RH WIND       PRES   REMARKS
JACKSON        CLEAR     18   8  65 SW3       29.96S
LONDON         CLOUDY    19   9  65 S5        30.00R WCI  12
SOMERSET       CLOUDY    19  12  73 S3        30.03R
MIDDLESBORO    CLOUDY    17  11  78 CALM      30.02S
MONTICELLO     CLOUDY    15  11  83 W10       30.03R WCI   2
$$




USA.gov is the U.S. government's official web portal to all federal, state and local government web resources and services.